| time (UTC) | temp C | wind direction | speed KPH | gust KPH | rain 1hr cm | rain 24hr cm | rain mn cm | humidity % | barometer mb |
| 20260507051543 | 5 | 180 | 6.4 | 12.9 | 0.00 | 0.43 | 0.03 | 96 | 1014.4 |
| 20260507050042 | 5 | 199 | 6.4 | 16.1 | 0.00 | 0.66 | 0.03 | 96 | 1014.3 |
| 20260507044534 | 5 | 209 | 4.8 | 12.9 | 0.00 | 0.66 | 0.03 | 96 | 1014.2 |
| 20260507043132 | 5 | 221 | 1.6 | 6.4 | 0.00 | 0.66 | 0.03 | 96 | 1014.0 |
| 20260507041552 | 5 | 224 | 3.2 | 8.0 | 0.00 | 0.66 | 0.03 | 96 | 1014.0 |
| 20260507040050 | 5 | 240 | 0.0 | 4.8 | 0.00 | 0.89 | 0.03 | 95 | 1014.0 |
| 20260507034557 | 6 | 240 | 3.2 | 8.0 | 0.00 | 0.89 | 0.03 | 96 | 1013.9 |
| 20260507033148 | 6 | 259 | 1.6 | 4.8 | 0.00 | 0.89 | 0.03 | 96 | 1014.0 |
| 20260507031544 | 6 | 259 | 1.6 | 4.8 | 0.00 | 0.89 | 0.03 | 96 | 1014.1 |
| 20260507030045 | 6 | 261 | 3.2 | 6.4 | 0.00 | 1.02 | 0.03 | 96 | 1014.0 |
| 20260507024555 | 6 | 259 | 3.2 | 6.4 | 0.00 | 1.02 | 0.03 | 96 | 1014.0 |
| 20260507023143 | 6 | 255 | 3.2 | 4.8 | 0.00 | 1.02 | 0.03 | 96 | 1013.9 |
| 20260507021547 | 6 | 255 | 3.2 | 4.8 | 0.00 | 1.02 | 0.03 | 96 | 1014.0 |
| 20260507020044 | 6 | 255 | 3.2 | 4.8 | 0.03 | 1.07 | 0.03 | 95 | 1014.0 |
| 20260507014543 | 6 | 255 | 1.6 | 4.8 | 0.03 | 1.07 | 0.03 | 95 | 1014.0 |
| 20260507013140 | 6 | 255 | 0.0 | 0.0 | 0.03 | 1.07 | 0.03 | 95 | 1013.9 |
| 20260507011542 | 6 | 254 | 0.0 | 6.4 | 0.03 | 1.07 | 0.03 | 95 | 1013.9 |
| 20260507010042 | 6 | 1 | 0.0 | 3.2 | 0.00 | 1.04 | 0.00 | 94 | 1014.2 |
| 20260507004535 | 6 | 8 | 3.2 | 12.9 | 0.00 | 1.04 | 0.00 | 94 | 1014.1 |
| 20260507003135 | 6 | 167 | 1.6 | 6.4 | 0.00 | 1.04 | 0.00 | 94 | 1013.9 |
| 20260507001602 | 6 | 184 | 0.0 | 9.7 | 0.00 | 1.04 | 0.00 | 94 | 1014.0 |
| 20260507000104 | 6 | 224 | 12.9 | 24.1 | 0.00 | 1.04 | 0.00 | 94 | 1013.9 |
| 20260506234602 | 6 | 215 | 4.8 | 8.0 | 0.00 | 1.04 | 0.00 | 95 | 1013.9 |
| 20260506233150 | 6 | 249 | 3.2 | 8.0 | 0.00 | 1.04 | 0.00 | 94 | 1013.8 |
| 20260506231548 | 6 | 229 | 3.2 | 6.4 | 0.00 | 1.04 | 0.00 | 94 | 1013.8 |
| 20260506230047 | 6 | 347 | 3.2 | 6.4 | 0.00 | 1.09 | 0.00 | 94 | 1013.8 |
| 20260506224549 | 6 | 351 | 0.0 | 6.4 | 0.00 | 1.09 | 0.00 | 94 | 1013.9 |
| 20260506223145 | 6 | 220 | 6.4 | 12.9 | 0.00 | 1.09 | 0.00 | 94 | 1013.8 |
| 20260506221548 | 7 | 191 | 3.2 | 9.7 | 0.00 | 1.09 | 0.00 | 93 | 1013.7 |
| 20260506220050 | 6 | 232 | 4.8 | 11.3 | 0.00 | 1.09 | 1.09 | 94 | 1013.9 |
| 20260506214544 | 6 | 205 | 4.8 | 9.7 | 0.00 | 1.09 | 1.09 | 94 | 1013.8 |
| 20260506213142 | 6 | 243 | 4.8 | 8.0 | 0.00 | 1.09 | 1.09 | 94 | 1013.6 |
| 20260506211546 | 6 | 269 | 1.6 | 6.4 | 0.00 | 1.09 | 1.09 | 94 | 1013.4 |
| 20260506210037 | 7 | 257 | 3.2 | 9.7 | 0.00 | 1.17 | 1.09 | 93 | 1013.4 |
| 20260506204537 | 7 | 259 | 0.0 | 9.7 | 0.00 | 1.17 | 1.09 | 94 | 1013.5 |
| 20260506203134 | 6 | 256 | 6.4 | 11.3 | 0.00 | 1.17 | 1.09 | 94 | 1013.4 |
| 20260506201555 | 6 | 256 | 3.2 | 9.7 | 0.00 | 1.17 | 1.09 | 94 | 1013.2 |
| 20260506200053 | 6 | 269 | 1.6 | 4.8 | 0.00 | 1.17 | 1.09 | 94 | 1013.1 |
| 20260506194552 | 6 | 265 | 4.8 | 9.7 | 0.00 | 1.17 | 1.09 | 94 | 1012.8 |
| 20260506193149 | 6 | 280 | 4.8 | 8.0 | 0.00 | 1.17 | 1.09 | 94 | 1012.5 |
| 20260506191550 | 6 | 300 | 3.2 | 8.0 | 0.00 | 1.17 | 1.09 | 94 | 1012.4 |
| 20260506190048 | 6 | 286 | 1.6 | 6.4 | 0.00 | 1.22 | 1.09 | 93 | 1012.2 |
| 20260506184547 | 6 | 290 | 3.2 | 6.4 | 0.00 | 1.22 | 1.09 | 93 | 1012.0 |
| 20260506183146 | 6 | 305 | 1.6 | 6.4 | 0.00 | 1.22 | 1.09 | 93 | 1011.9 |
| 20260506181543 | 6 | 289 | 3.2 | 6.4 | 0.00 | 1.22 | 1.09 | 93 | 1011.7 |
| 20260506180042 | 7 | 284 | 4.8 | 8.0 | 0.00 | 1.63 | 1.09 | 93 | 1011.4 |
| 20260506174549 | 7 | 282 | 6.4 | 9.7 | 0.00 | 1.63 | 1.09 | 92 | 1011.3 |
| 20260506173143 | 7 | 309 | 4.8 | 6.4 | 0.00 | 1.63 | 1.09 | 91 | 1011.2 |
| 20260506171537 | 7 | 292 | 4.8 | 11.3 | 0.00 | 1.63 | 1.09 | 90 | 1011.3 |
| 20260506170037 | 8 | 307 | 1.6 | 8.0 | 0.00 | 1.63 | 1.09 | 90 | 1011.0 |
| 20260506164537 | 8 | 309 | 3.2 | 6.4 | 0.00 | 1.63 | 1.09 | 89 | 1011.1 |
| 20260506163137 | 8 | 311 | 4.8 | 9.7 | 0.00 | 1.63 | 1.09 | 87 | 1011.1 |
| 20260506161605 | 9 | 303 | 4.8 | 8.0 | 0.00 | 1.63 | 1.09 | 87 | 1011.0 |
| 20260506160054 | 9 | 261 | 3.2 | 11.3 | 0.00 | 1.65 | 1.09 | 87 | 1011.1 |
| 20260506154554 | 9 | 85 | 0.0 | 6.4 | 0.00 | 1.65 | 1.09 | 88 | 1011.1 |
| 20260506153151 | 9 | 94 | 3.2 | 9.7 | 0.00 | 1.65 | 1.09 | 88 | 1011.1 |
| 20260506151548 | 9 | 263 | 4.8 | 12.9 | 0.00 | 1.65 | 1.09 | 88 | 1011.3 |
| 20260506150057 | 10 | 351 | 0.0 | 6.4 | 0.00 | 1.65 | 1.09 | 88 | 1011.0 |
| 20260506144602 | 10 | 150 | 1.6 | 9.7 | 0.00 | 1.65 | 1.09 | 89 | 1011.1 |
| 20260506143144 | 10 | 28 | 1.6 | 8.0 | 0.00 | 1.65 | 1.09 | 91 | 1011.3 |
| 20260506141542 | 9 | 72 | 0.0 | 0.0 | 0.00 | 1.65 | 1.09 | 91 | 1011.3 |
| 20260506140057 | 9 | 72 | 0.0 | 0.0 | 0.00 | 1.65 | 1.09 | 93 | 1011.3 |
| 20260506134544 | 8 | 62 | 0.0 | 0.0 | 0.00 | 1.65 | 1.09 | 94 | 1011.3 |
| 20260506133142 | 8 | 62 | 0.0 | 0.0 | 0.00 | 1.65 | 1.09 | 95 | 1011.3 |
| 20260506131545 | 8 | 61 | 0.0 | 9.7 | 0.00 | 1.65 | 1.09 | 96 | 1011.3 |
| 20260506130107 | 8 | 62 | 1.6 | 9.7 | 0.00 | 1.65 | 1.09 | 95 | 1011.4 |
| 20260506124540 | 10 | 24 | 0.0 | 9.7 | 0.00 | 1.65 | 1.09 | 97 | 1011.3 |
| 20260506123138 | 9 | 37 | 0.0 | 6.4 | 0.00 | 1.65 | 1.09 | 97 | 1011.2 |
| 20260506121559 | 8 | 76 | 0.0 | 0.0 | 0.00 | 1.65 | 1.09 | 98 | 1011.3 |
| 20260506120057 | 8 | 74 | 0.0 | 0.0 | 0.00 | 1.65 | 1.09 | 97 | 1011.3 |
| 20260506114553 | 8 | 71 | 0.0 | 9.7 | 0.00 | 1.65 | 1.09 | 97 | 1011.3 |
| 20260506113153 | 8 | 54 | 3.2 | 6.4 | 0.00 | 1.65 | 1.09 | 97 | 1011.3 |
| 20260506111551 | 8 | 72 | 0.0 | 6.4 | 0.03 | 1.65 | 1.09 | 97 | 1011.3 |
| 20260506110048 | 7 | 69 | 4.8 | 14.5 | 0.08 | 1.70 | 1.09 | 97 | 1011.3 |
| 20260506104555 | 7 | 68 | 1.6 | 4.8 | 0.10 | 1.70 | 1.09 | 97 | 1011.3 |
| 20260506103146 | 7 | 71 | 1.6 | 6.4 | 0.13 | 1.70 | 1.09 | 96 | 1011.4 |
| 20260506101544 | 7 | 63 | 1.6 | 6.4 | 0.10 | 1.68 | 1.07 | 96 | 1011.2 |
| 20260506100058 | 7 | 67 | 0.0 | 9.7 | 0.05 | 1.88 | 0.99 | 96 | 1011.1 |
| 20260506094544 | 8 | 32 | 4.8 | 12.9 | 0.05 | 1.85 | 0.99 | 95 | 1010.8 |
| 20260506093143 | 8 | 35 | 0.0 | 9.7 | 0.05 | 1.83 | 0.97 | 95 | 1010.8 |
| 20260506091544 | 8 | 122 | 0.0 | 11.3 | 0.05 | 1.83 | 0.97 | 94 | 1010.5 |
| 20260506090043 | 8 | 168 | 6.4 | 14.5 | 0.05 | 2.11 | 0.94 | 94 | 1010.3 |
| 20260506084541 | 8 | 161 | 9.7 | 12.9 | 0.03 | 2.11 | 0.91 | 94 | 1010.1 |
| 20260506083140 | 7 | 234 | 1.6 | 11.3 | 0.00 | 2.08 | 0.89 | 94 | 1010.0 |
| 20260506081550 | 7 | 217 | 1.6 | 14.5 | 0.00 | 2.08 | 0.89 | 95 | 1010.0 |
| 20260506073133 | 7 | 173 | 8.0 | 16.1 | 0.00 | 2.36 | 0.89 | 97 | 1009.4 |
| 20260506071555 | 6 | 180 | 4.8 | 16.1 | 0.03 | 2.36 | 0.89 | 97 | 1009.2 |
| 20260506061550 | 7 | 230 | 0.0 | 8.0 | 0.13 | 2.41 | 0.89 | 98 | 1008.8 |